Location: Austin
(30.3000°N, 97.7500°W)
Time: 10:28:25
(UTC-05:00)

Cosmos 1151 Rocket - Pass Details

Date: 03 April 2024
Orbit: 590 x 610 km, 82.5° (Epoch: 22 April)

Event Time Altitude Azimuth Distance (km) Brightness Sun altitude
Exits shadow 06:46:49 - 221° (SW) 2,558 5.7 -7.3°
Reaches altitude 10° 06:48:48 10° 235° (SW) 1,913 5.0 -6.9°
Maximum altitude 06:51:54 20° 282° (WNW) 1,396 4.3 -6.2°
Drops below altitude 10° 06:55:02 10° 330° (NNW) 1,927 5.4 -5.5°
Sets 06:57:45 0° 347° (NNW) 2,836 6.4 -5.0°
